[TLELIST] Archives

 

[list_settings.list_name] Current TLEs

July 27th 2011 PDT

HST 1 20580U 90037B 11207.13784693 .00000771 00000-0 45553-4 0 8053 2 20580 028.4692 121.9963 0003630 176.3958 183.6681 15.01432868965517 ISS (ZARYA) 1 25544U 98067A 11208.18081226 .00006856 00000-0 88575-4 0 7866 2 25544 051.6418 319.4122 0011773 010.1798 056.1263 15.60195135727155 CXO 1 25867U 99040B 11203.37500000 -.00000945 00000-0 00000+0 0 6278 2 25867 069.6379 029.2435 8639221 276.8987 000.2216 00.37804011 7904 ____________________________________________________________________ These 2-Line ...Continue Reading

[list_settings.list_name] Current TLEs

July 26th 2011 PDT

HST 1 20580U 90037B 11207.13784693 .00000771 00000-0 45553-4 0 8053 2 20580 028.4692 121.9963 0003630 176.3958 183.6681 15.01432868965517 ISS (ZARYA) 1 25544U 98067A 11207.15501252 .00006684 00000-0 86577-4 0 7812 2 25544 051.6418 324.5741 0011727 006.4561 054.4244 15.60179304726995 CXO 1 25867U 99040B 11203.37500000 -.00000945 00000-0 00000+0 0 6278 2 25867 069.6379 029.2435 8639221 276.8987 000.2216 00.37804011 7904 ____________________________________________________________________ These 2-Line ...Continue Reading

[list_settings.list_name] Current TLEs

July 25th 2011 PDT

HST 1 20580U 90037B 11205.14367956 .00000752 00000-0 44176-4 0 8049 2 20580 028.4693 135.0233 0003627 156.3038 203.7656 15.01430399965217 ISS (ZARYA) 1 25544U 98067A 11206.39707846 .00001591 00000-0 25490-4 0 7756 2 25544 051.6420 328.3899 0011703 003.4729 117.5368 15.60163877726874 CXO 1 25867U 99040B 11203.37500000 -.00000945 00000-0 00000+0 0 6278 2 25867 069.6379 029.2435 8639221 276.8987 000.2216 00.37804011 7904 ____________________________________________________________________ These 2-Line ...Continue Reading

[list_settings.list_name] Current TLEs

July 24th 2011 PDT

HST 1 20580U 90037B 11205.14367956 .00000752 00000-0 44176-4 0 8049 2 20580 028.4693 135.0233 0003627 156.3038 203.7656 15.01430399965217 ISS (ZARYA) 1 25544U 98067A 11205.23502439 -.00001343 00000-0 -97659-5 0 7696 2 25544 051.6411 334.2348 0011816 358.0554 071.8423 15.60149652726698 CXO 1 25867U 99040B 11203.37500000 -.00000945 00000-0 00000+0 0 6278 2 25867 069.6379 029.2435 8639221 276.8987 000.2216 00.37804011 7904 ____________________________________________________________________ These 2-Line ...Continue Reading

[list_settings.list_name] Current TLEs

July 23rd 2011 PDT

HST 1 20580U 90037B 11204.21306996 .00000833 00000-0 50248-4 0 8039 2 20580 028.4692 141.0996 0003753 148.5716 211.5214 15.01429647965070 ISS (ZARYA) 1 25544U 98067A 11204.40247633 .00004596 00000-0 61624-4 0 7622 2 25544 051.6413 338.4221 0011598 355.4975 075.2562 15.60137485726560 CXO 1 25867U 99040B 11203.37500000 -.00000945 00000-0 00000+0 0 6278 2 25867 069.6379 029.2435 8639221 276.8987 000.2216 00.37804011 7904 ____________________________________________________________________ These 2-Line ...Continue Reading

[list_settings.list_name] Current TLEs

July 22nd 2011 PDT

HST 1 20580U 90037B 11203.21598610 .00000682 00000-0 38864-4 0 8025 2 20580 028.4693 147.6177 0003640 136.1053 223.9919 15.01427710964927 ISS (ZARYA) 1 25544U 98067A 11203.44061253 .00008900 00000-0 11340-3 0 7595 2 25544 051.6430 343.2638 0010708 354.2098 070.6638 15.60125810726416 CXO 1 25867U 99040B 11203.37500000 -.00000945 00000-0 00000+0 0 6278 2 25867 069.6379 029.2435 8639221 276.8987 000.2216 00.37804011 7904 ____________________________________________________________________ These 2-Line ...Continue Reading

[list_settings.list_name] Current TLEs

July 21st 2011 PDT

HST 1 20580U 90037B 11201.28828586 .00000600 00000-0 32644-4 0 8017 2 20580 028.4691 160.2129 0003585 116.6907 243.4152 15.01425223964633 ISS (ZARYA) 1 25544U 98067A 11202.41311987 .00024828 00000-0 30423-3 0 7537 2 25544 051.6403 348.4260 0011128 350.6199 059.5881 15.60134459726250 CXO 1 25867U 99040B 11203.37500000 -.00000945 00000-0 00000+0 0 6278 2 25867 069.6379 029.2435 8639221 276.8987 000.2216 00.37804011 7904 ____________________________________________________________________ These 2-Line ...Continue Reading

[list_settings.list_name] Current TLEs

July 20th 2011 PDT

HST 1 20580U 90037B 11198.23054475 .00000560 00000-0 29656-4 0 8008 2 20580 028.4688 180.1909 0003489 085.2272 274.8727 15.01422310964174 ISS (ZARYA) 1 25544U 98067A 11201.38811571 .00018755 00000-0 23176-3 0 7467 2 25544 051.6405 353.5850 0011459 344.6713 064.9104 15.60104724726098 CXO 1 25867U 99040B 11200.75000000 -.00000907 00000-0 00000+0 0 6269 2 25867 069.6159 029.4373 8640057 276.8774 002.8981 00.37805526 7893 ____________________________________________________________________ These 2-Line ...Continue Reading

[list_settings.list_name] Current TLEs

July 19th 2011 PDT

HST 1 20580U 90037B 11198.23054475 .00000560 00000-0 29656-4 0 8008 2 20580 028.4688 180.1909 0003489 085.2272 274.8727 15.01422310964174 ISS (ZARYA) 1 25544U 98067A 11200.36637016 .00009056 00000-0 11588-3 0 7406 2 25544 051.6413 358.7195 0011326 343.8533 083.4325 15.59981413725939 CXO 1 25867U 99040B 11200.75000000 -.00000907 00000-0 00000+0 0 6269 2 25867 069.6159 029.4373 8640057 276.8774 002.8981 00.37805526 7893 ____________________________________________________________________ These 2-Line ...Continue Reading

[list_settings.list_name] Current TLEs

July 18th 2011 PDT

HST 1 20580U 90037B 11198.23054475 .00000560 00000-0 29656-4 0 8008 2 20580 028.4688 180.1909 0003489 085.2272 274.8727 15.01422310964174 ISS (ZARYA) 1 25544U 98067A 11199.34195200 .00009076 00000-0 11620-3 0 7347 2 25544 051.6411 003.8715 0011229 339.7391 090.6868 15.59961879725779 CXO 1 25867U 99040B 11200.75000000 -.00000907 00000-0 00000+0 0 6269 2 25867 069.6159 029.4373 8640057 276.8774 002.8981 00.37805526 7893 ____________________________________________________________________ These 2-Line ...Continue Reading
  • This mailing list is a public mailing list - anyone may join or leave, at any time.
  • This mailing list is announce-only.

International Space Station (ISS) / Hubble Space Telescope (HST) / Chandra X-Ray Observatory Orbital Data via EMAIL

Privacy Policy:

Private list